WN8IZV Weather Reports


time (UTC)temp
F
wind
direction
speed
knots
gust
knots
rain 1hr
in
rain 24hr
in
rain mn
in
humidity
%
barometer
mb
20260510180013 60 289 1.7 8.7 0.00 0.06 0.00 66 1017.8
20260510174508 60 7 1.7 5.2 0.00 0.06 0.00 66 1017.8
20260510173003 60 302 1.7 6.1 0.00 0.06 0.00 67 1017.8
20260510171500 59 274 2.6 6.1 0.00 0.06 0.00 67 1018.1
20260510170059 59 349 2.6 8.7 0.00 0.06 0.00 67 1018.1
20260510164556 59 333 2.6 6.1 0.00 0.06 0.00 67 1018.2
20260510163055 58 281 1.7 7.0 0.00 0.06 0.00 68 1018.1
20260510161547 59 167 1.7 7.8 0.00 0.06 0.00 68 1018.0
20260510160045 58 13 1.7 5.2 0.00 0.06 0.00 68 1017.8
20260510154542 57 288 1.7 7.0 0.00 0.06 0.00 68 1017.7
20260510153036 57 349 1.7 6.1 0.00 0.06 0.00 69 1017.6
20260510151537 56 255 1.7 6.1 0.00 0.06 0.00 69 1017.5
20260510150031 55 240 0.9 3.5 0.00 0.06 0.00 69 1017.4
20260510144535 55 342 0.9 4.3 0.00 0.06 0.00 69 1017.3
20260510143026 54 178 0.9 3.5 0.00 0.06 0.00 69 1017.2
20260510141524 52 15 0.0 2.6 0.00 0.06 0.00 69 1017.2
20260510140017 51 326 0.9 6.1 0.00 0.06 0.00 70 1017.2
20260510134516 50 7 0.9 6.1 0.00 0.06 0.00 70 1017.1
20260510133018 50 344 0.9 4.3 0.00 0.06 0.00 70 1016.9
20260510131517 49 352 1.7 6.1 0.00 0.06 0.00 70 1016.7
20260510130014 49 60 0.9 4.3 0.00 0.06 0.00 70 1016.7
20260510124503 48 21 0.9 3.5 0.00 0.06 0.00 71 1016.4
20260510123002 47 38 1.7 6.1 0.00 0.06 0.00 71 1016.4
20260510121600 46 12 1.7 5.2 0.00 0.06 0.00 71 1016.4
20260510120058 45 7 0.0 1.7 0.00 0.06 0.00 71 1016.2
20260510114553 43 351 0.0 2.6 0.00 0.06 0.00 70 1015.8
20260510113049 42 7 0.0 3.5 0.00 0.06 0.00 70 1015.6
20260510111555 39 341 0.0 0.9 0.00 0.06 0.00 69 1015.3
20260510110044 38 8 0.0 0.0 0.00 0.06 0.00 68 1015.2
20260510104546 37 8 0.0 0.0 0.00 0.06 0.00 68 1015.0
20260510103037 36 8 0.0 0.0 0.00 0.06 0.00 68 1014.8
20260510101533 37 8 0.0 0.0 0.00 0.06 0.00 68 1014.6
20260510100028 38 8 0.0 0.0 0.00 0.06 0.00 68 1014.4
20260510094530 39 8 0.0 0.0 0.00 0.06 0.00 67 1014.5
20260510093021 38 8 0.0 0.0 0.00 0.06 0.00 67 1014.3
20260510091521 38 10 0.0 0.0 0.00 0.06 0.00 67 1014.0
20260510090012 40 10 0.0 0.0 0.00 0.06 0.00 67 1013.6
20260510084504 41 10 0.0 0.0 0.00 0.06 0.00 67 1013.2
20260510083111 42 10 0.0 0.9 0.00 0.06 0.00 67 1013.0
20260510081625 42 14 0.0 0.9 0.00 0.06 0.00 67 1012.8
20260510080051 43 11 0.0 0.9 0.00 0.06 0.00 67 1012.5
20260510074545 44 1 0.0 2.6 0.00 0.06 0.00 67 1012.2
20260510073039 45 23 0.0 0.9 0.00 0.06 0.00 67 1011.9
20260510071535 45 53 0.9 3.5 0.00 0.06 0.00 67 1011.6
20260510070030 46 93 0.0 0.9 0.00 0.06 0.00 67 1011.4
20260510064527 47 57 0.0 2.6 0.00 0.06 0.00 67 1011.3
20260510063020 48 63 0.0 1.7 0.00 0.06 0.00 67 1011.2
20260510061525 49 5 0.0 0.9 0.00 0.06 0.00 67 1010.9
20260510060030 49 8 0.0 1.7 0.00 0.06 0.00 67 1010.7
20260510054507 50 13 0.0 0.9 0.00 0.06 0.00 67 1010.5
20260510053002 51 14 0.0 2.6 0.00 0.06 0.00 67 1010.2
20260510051652 51 359 0.0 1.7 0.00 0.06 0.00 67 1010.1
20260510050054 52 4 0.0 2.6 0.00 0.06 0.00 67 1009.9
20260510044548 53 15 0.9 5.2 0.00 0.06 0.00 67 1009.6
20260510043110 53 6 0.0 4.3 0.00 0.06 0.00 67 1009.4
20260510041541 54 31 1.7 5.2 0.00 0.06 0.00 67 1009.1
20260510040034 54 294 1.7 6.1 0.00 0.06 0.00 67 1008.9
20260510034531 55 38 2.6 7.8 0.00 0.06 0.06 67 1008.6
20260510033028 56 53 3.5 8.7 0.00 0.06 0.06 68 1008.3
20260510031536 57 326 3.5 10.4 0.00 0.06 0.06 68 1008.1
20260510030021 59 346 4.3 9.6 0.00 0.06 0.06 68 1007.8
20260510024519 60 296 3.5 7.8 0.00 0.06 0.06 68 1007.6
20260510023033 60 319 4.3 10.4 0.00 0.06 0.06 68 1007.1
20260510021516 60 288 0.0 1.7 0.00 0.06 0.06 68 1006.4
20260510020013 61 335 0.0 0.0 0.00 0.06 0.06 68 1005.9
20260510014510 61 343 0.0 1.7 0.00 0.06 0.06 68 1005.6
20260510013012 62 313 0.0 0.9 0.00 0.06 0.06 69 1005.2
20260510011512 62 329 0.0 1.7 0.00 0.06 0.06 69 1004.8
20260510010011 63 276 0.0 1.7 0.00 0.06 0.06 69 1004.6
20260510004504 64 316 0.0 2.6 0.00 0.06 0.06 69 1004.4
20260510003107 65 304 0.9 3.5 0.00 0.06 0.06 69 1004.1
20260510001557 66 257 1.7 6.1 0.00 0.06 0.06 70 1003.9
20260510000055 67 300 0.9 5.2 0.00 0.06 0.06 70 1003.6
20260509234553 68 305 1.7 6.1 0.00 0.06 0.06 70 1003.6
20260509233050 69 44 3.5 9.6 0.00 0.06 0.06 71 1003.5
20260509231557 69 120 2.6 7.8 0.00 0.06 0.06 71 1003.4
20260509230045 69 284 5.2 13.9 0.00 0.06 0.06 71 1003.1
20260509224542 70 345 2.6 13.9 0.00 0.06 0.06 72 1002.8
20260509223039 70 277 3.5 10.4 0.00 0.06 0.06 72 1002.3
20260509221538 70 286 1.7 7.8 0.00 0.06 0.06 72 1002.2
20260509220036 70 285 4.3 12.2 0.00 0.06 0.06 73 1002.0
20260509214530 71 292 3.5 13.9 0.00 0.06 0.06 73 1001.7
20260509213029 70 282 2.6 12.2 0.00 0.06 0.06 74 1001.5
20260509211551 70 246 0.9 7.8 0.00 0.06 0.06 74 1001.5
20260509210022 69 264 3.5 11.3 0.00 0.06 0.06 74 1001.8
20260509204521 68 270 2.6 7.0 0.00 0.06 0.06 74 1002.0
20260509203118 67 199 1.7 7.0 0.00 0.06 0.06 74 1002.2
20260509201520 66 304 1.7 6.1 0.05 0.06 0.06 74 1002.6
20260509200015 62 262 1.7 6.1 0.06 0.06 0.06 73 1002.5
20260509194511 60 219 0.0 2.6 0.06 0.06 0.06 72 1002.8
20260509193010 58 276 0.9 13.9 0.06 0.06 0.06 72 1002.8
20260509191507 65 274 7.8 13.0 0.01 0.01 0.01 73 1003.1
20260509190006 68 175 3.5 7.8 0.00 0.00 0.00 74 1001.7
20260509184502 69 205 2.6 7.8 0.00 0.00 0.00 74 1001.4
20260509181609 71 194 4.3 8.7 0.00 0.00 0.00 75 1001.5